Time,TemperatureF,DewpointF,PressureIn,WindDirection,WindDirectionDegrees,WindSpeedMPH,WindSpeedGustMPH,Humidity,HourlyPrecipIn,Conditions,Clouds,dailyrainin,SoftwareType,DateUTC
2013-01-23 00:01:00,13.3,0.8,30.17,North,0,0.0,0.0,57,0.00,,,0.00,WUHU216HW,2013-01-23 05:01:00,
2013-01-23 00:02:00,13.3,0.8,30.17,North,0,0.0,0.0,57,0.00,,,0.00,WUHU216HW,2013-01-23 05:02:00,
2013-01-23 00:03:00,13.3,0.8,30.16,North,0,0.0,0.0,57,0.00,,,0.00,WUHU216HW,2013-01-23 05:03:00,
2013-01-23 00:08:00,13.3,0.8,30.17,North,0,0.0,0.0,57,0.00,,,0.00,WUHU216HW,2013-01-23 05:08:00,
2013-01-23 00:13:00,13.3,0.8,30.17,North,0,0.0,0.0,57,0.00,,,0.00,WUHU216HW,2013-01-23 05:13:00,
2013-01-23 00:18:00,13.3,0.8,30.16,North,0,0.0,0.0,57,0.00,,,0.00,WUHU216HW,2013-01-23 05:18:00,
2013-01-23 00:23:00,13.3,0.8,30.17,North,0,0.0,0.0,57,0.00,,,0.00,WUHU216HW,2013-01-23 05:23:00,
2013-01-23 00:28:00,13.3,1.2,30.17,North,0,0.0,0.0,58,0.00,,,0.00,WUHU216HW,2013-01-23 05:28:00,
2013-01-23 00:33:00,13.3,1.2,30.17,North,0,0.0,0.0,58,0.00,,,0.00,WUHU216HW,2013-01-23 05:33:00,
2013-01-23 00:38:00,13.3,1.2,30.17,North,0,0.0,0.0,58,0.00,,,0.00,WUHU216HW,2013-01-23 05:38:00,
2013-01-23 00:43:00,13.3,1.2,30.17,North,0,0.0,0.0,58,0.00,,,0.00,WUHU216HW,2013-01-23 05:43:00,
2013-01-23 00:48:00,13.3,1.2,30.16,North,0,0.0,0.0,58,0.00,,,0.00,WUHU216HW,2013-01-23 05:48:00,
2013-01-23 00:53:00,13.3,1.2,30.16,North,0,0.0,0.0,58,0.00,,,0.00,WUHU216HW,2013-01-23 05:53:00,
2013-01-23 00:59:00,13.3,1.2,30.16,North,0,0.0,0.0,58,0.00,,,0.00,WUHU216HW,2013-01-23 05:59:00,
2013-01-23 01:04:00,13.3,1.2,30.16,North,0,0.0,0.0,58,0.00,,,0.00,WUHU216HW,2013-01-23 06:04:00,
2013-01-23 01:09:00,13.3,1.2,30.16,North,0,0.0,0.0,58,0.00,,,0.00,WUHU216HW,2013-01-23 06:09:00,
2013-01-23 01:14:00,13.3,1.2,30.15,North,0,0.0,0.0,58,0.00,,,0.00,WUHU216HW,2013-01-23 06:14:00,
2013-01-23 01:19:00,13.3,1.2,30.15,North,0,0.0,0.0,58,0.00,,,0.00,WUHU216HW,2013-01-23 06:19:00,
2013-01-23 01:24:00,13.5,1.4,30.16,North,0,0.0,0.0,58,0.00,,,0.00,WUHU216HW,2013-01-23 06:24:00,
2013-01-23 01:29:00,13.5,1.4,30.16,North,0,0.0,0.0,58,0.00,,,0.00,WUHU216HW,2013-01-23 06:29:00,
2013-01-23 01:34:00,13.5,1.4,30.16,North,0,0.0,0.0,58,0.00,,,0.00,WUHU216HW,2013-01-23 06:34:00,
2013-01-23 01:39:00,13.5,1.4,30.17,North,0,0.0,0.0,58,0.00,,,0.00,WUHU216HW,2013-01-23 06:39:00,
2013-01-23 01:44:00,13.5,1.4,30.17,North,0,0.0,0.0,58,0.00,,,0.00,WUHU216HW,2013-01-23 06:44:00,
2013-01-23 01:49:00,13.3,1.2,30.17,North,0,0.0,0.0,58,0.00,,,0.00,WUHU216HW,2013-01-23 06:49:00,
2013-01-23 01:54:00,13.5,1.4,30.17,North,0,0.0,0.0,58,0.00,,,0.00,WUHU216HW,2013-01-23 06:54:00,
2013-01-23 01:59:00,13.5,1.4,30.17,North,0,0.0,0.0,58,0.00,,,0.00,WUHU216HW,2013-01-23 06:59:00,
2013-01-23 02:04:00,13.5,1.4,30.17,North,0,0.0,0.0,58,0.00,,,0.00,WUHU216HW,2013-01-23 07:04:00,
2013-01-23 02:09:00,13.5,1.4,30.17,North,0,0.0,0.0,58,0.00,,,0.00,WUHU216HW,2013-01-23 07:09:00,
2013-01-23 02:15:00,13.5,1.4,30.16,North,0,0.0,0.0,58,0.00,,,0.00,WUHU216HW,2013-01-23 07:15:00,
2013-01-23 02:20:00,13.5,1.4,30.16,North,0,0.0,0.0,58,0.00,,,0.00,WUHU216HW,2013-01-23 07:20:00,
2013-01-23 02:25:00,13.7,1.5,30.16,North,0,0.0,0.0,58,0.00,,,0.00,WUHU216HW,2013-01-23 07:25:00,
2013-01-23 02:30:00,13.7,1.5,30.16,North,0,0.0,0.0,58,0.00,,,0.00,WUHU216HW,2013-01-23 07:30:00,
2013-01-23 02:35:00,13.7,1.5,30.16,North,0,0.0,0.0,58,0.00,,,0.00,WUHU216HW,2013-01-23 07:35:00,
2013-01-23 02:40:00,13.7,1.5,30.16,North,0,0.0,0.0,58,0.00,,,0.00,WUHU216HW,2013-01-23 07:40:00,
2013-01-23 02:45:00,13.7,1.5,30.16,North,0,0.0,0.0,58,0.00,,,0.00,WUHU216HW,2013-01-23 07:45:00,
2013-01-23 02:50:00,13.7,1.5,30.15,North,0,0.0,0.0,58,0.00,,,0.00,WUHU216HW,2013-01-23 07:50:00,
2013-01-23 02:55:00,13.7,1.5,30.15,North,0,0.0,0.0,58,0.00,,,0.00,WUHU216HW,2013-01-23 07:55:00,
2013-01-23 03:00:00,13.9,1.7,30.15,North,0,0.0,0.0,58,0.00,,,0.00,WUHU216HW,2013-01-23 08:00:00,
2013-01-23 03:05:00,13.7,2.0,30.15,North,0,0.0,0.0,59,0.00,,,0.00,WUHU216HW,2013-01-23 08:05:00,
2013-01-23 03:10:00,13.9,2.2,30.15,North,0,0.0,0.0,59,0.00,,,0.00,WUHU216HW,2013-01-23 08:10:00,
2013-01-23 03:15:00,13.9,2.2,30.16,North,0,0.0,0.0,59,0.00,,,0.00,WUHU216HW,2013-01-23 08:15:00,
2013-01-23 03:20:00,13.7,2.0,30.15,North,0,0.0,0.0,59,0.00,,,0.00,WUHU216HW,2013-01-23 08:20:00,
2013-01-23 03:25:00,13.7,2.0,30.15,North,0,0.0,0.0,59,0.00,,,0.00,WUHU216HW,2013-01-23 08:25:00,
2013-01-23 03:30:00,13.7,2.0,30.15,North,0,0.0,0.0,59,0.00,,,0.00,WUHU216HW,2013-01-23 08:30:00,
2013-01-23 03:35:00,13.5,1.8,30.15,North,0,0.0,0.0,59,0.00,,,0.00,WUHU216HW,2013-01-23 08:35:00,
2013-01-23 03:40:00,13.5,1.8,30.15,North,0,0.0,0.0,59,0.00,,,0.00,WUHU216HW,2013-01-23 08:40:00,
2013-01-23 03:45:00,13.3,2.0,30.15,North,0,0.0,0.0,60,0.00,,,0.00,WUHU216HW,2013-01-23 08:45:00,
2013-01-23 03:50:00,13.3,2.0,30.15,North,0,0.0,0.0,60,0.00,,,0.00,WUHU216HW,2013-01-23 08:50:00,
2013-01-23 03:55:00,13.3,2.0,30.14,North,0,0.0,0.0,60,0.00,,,0.00,WUHU216HW,2013-01-23 08:55:00,
2013-01-23 04:00:00,13.1,1.8,30.14,North,0,0.0,0.0,60,0.00,,,0.00,WUHU216HW,2013-01-23 09:00:00,
2013-01-23 04:05:00,13.1,1.8,30.15,North,0,0.0,0.0,60,0.00,,,0.00,WUHU216HW,2013-01-23 09:05:00,
2013-01-23 04:11:00,13.1,1.8,30.15,North,0,0.0,0.0,60,0.00,,,0.00,WUHU216HW,2013-01-23 09:11:00,
2013-01-23 04:16:00,13.0,1.6,30.14,North,0,0.0,0.0,60,0.00,,,0.00,WUHU216HW,2013-01-23 09:16:00,
2013-01-23 04:21:00,13.0,1.6,30.14,North,0,0.0,0.0,60,0.00,,,0.00,WUHU216HW,2013-01-23 09:21:00,
2013-01-23 04:26:00,13.0,2.0,30.14,North,0,0.0,0.0,61,0.00,,,0.00,WUHU216HW,2013-01-23 09:26:00,
2013-01-23 04:31:00,13.0,2.0,30.15,North,0,0.0,0.0,61,0.00,,,0.00,WUHU216HW,2013-01-23 09:31:00,
2013-01-23 04:36:00,13.0,2.0,30.15,North,0,0.0,0.0,61,0.00,,,0.00,WUHU216HW,2013-01-23 09:36:00,
2013-01-23 04:41:00,12.8,1.8,30.15,North,0,0.0,0.0,61,0.00,,,0.00,WUHU216HW,2013-01-23 09:41:00,
2013-01-23 04:46:00,12.6,2.0,30.15,North,0,0.0,0.0,62,0.00,,,0.00,WUHU216HW,2013-01-23 09:46:00,
2013-01-23 04:51:00,12.6,2.0,30.15,North,0,0.0,0.0,62,0.00,,,0.00,WUHU216HW,2013-01-23 09:51:00,
2013-01-23 04:56:00,12.6,2.0,30.15,North,0,0.0,0.0,62,0.00,,,0.00,WUHU216HW,2013-01-23 09:56:00,
2013-01-23 05:01:00,12.6,2.0,30.15,North,0,0.0,0.0,62,0.00,,,0.00,WUHU216HW,2013-01-23 10:01:00,
2013-01-23 05:06:00,12.8,2.2,30.15,North,0,0.0,0.0,62,0.00,,,0.00,WUHU216HW,2013-01-23 10:06:00,
2013-01-23 05:11:00,12.8,2.2,30.14,North,0,0.0,0.0,62,0.00,,,0.00,WUHU216HW,2013-01-23 10:11:00,
2013-01-23 05:16:00,13.0,2.6,30.14,North,0,0.0,0.0,63,0.00,,,0.00,WUHU216HW,2013-01-23 10:16:00,
2013-01-23 05:22:00,13.0,2.6,30.14,North,0,0.0,0.0,63,0.00,,,0.00,WUHU216HW,2013-01-23 10:22:00,
2013-01-23 05:27:00,13.1,2.8,30.14,North,0,0.0,0.0,63,0.00,,,0.00,WUHU216HW,2013-01-23 10:27:00,
2013-01-23 05:32:00,13.1,2.8,30.14,North,0,0.0,0.0,63,0.00,,,0.00,WUHU216HW,2013-01-23 10:32:00,
2013-01-23 05:37:00,13.3,3.0,30.14,North,0,0.0,0.0,63,0.00,,,0.00,WUHU216HW,2013-01-23 10:37:00,
2013-01-23 05:42:00,13.3,3.0,30.14,North,0,0.0,0.0,63,0.00,,,0.00,WUHU216HW,2013-01-23 10:42:00,
2013-01-23 05:47:00,13.3,3.0,30.14,North,0,0.0,0.0,63,0.00,,,0.00,WUHU216HW,2013-01-23 10:47:00,
2013-01-23 05:52:00,13.3,3.0,30.14,North,0,0.0,0.0,63,0.00,,,0.00,WUHU216HW,2013-01-23 10:52:00,
2013-01-23 05:57:00,13.5,3.2,30.14,North,0,0.0,0.0,63,0.00,,,0.00,WUHU216HW,2013-01-23 10:57:00,
2013-01-23 06:02:00,13.5,3.2,30.14,North,0,0.0,0.0,63,0.00,,,0.00,WUHU216HW,2013-01-23 11:02:00,
2013-01-23 06:07:00,13.5,3.2,30.14,North,0,0.0,0.0,63,0.00,,,0.00,WUHU216HW,2013-01-23 11:07:00,
2013-01-23 06:13:00,13.7,3.3,30.14,North,0,0.0,0.0,63,0.00,,,0.00,WUHU216HW,2013-01-23 11:13:00,
2013-01-23 06:18:00,13.7,3.1,30.14,North,0,0.0,0.0,62,0.00,,,0.00,WUHU216HW,2013-01-23 11:18:00,
2013-01-23 06:23:00,13.7,3.1,30.14,North,0,0.0,0.0,62,0.00,,,0.00,WUHU216HW,2013-01-23 11:23:00,
2013-01-23 06:28:00,13.7,3.1,30.14,North,0,0.0,0.0,62,0.00,,,0.00,WUHU216HW,2013-01-23 11:28:00,
2013-01-23 06:33:00,13.7,3.1,30.14,North,0,0.0,0.0,62,0.00,,,0.00,WUHU216HW,2013-01-23 11:33:00,
2013-01-23 06:38:00,13.7,2.7,30.14,North,0,0.0,0.0,61,0.00,,,0.00,WUHU216HW,2013-01-23 11:38:00,
2013-01-23 06:43:00,13.7,2.7,30.14,North,0,0.0,0.0,61,0.00,,,0.00,WUHU216HW,2013-01-23 11:43:00,
2013-01-23 06:48:00,13.7,2.7,30.14,North,0,0.0,0.0,61,0.00,,,0.00,WUHU216HW,2013-01-23 11:48:00,
2013-01-23 06:53:00,13.9,2.9,30.14,North,0,0.0,0.0,61,0.00,,,0.00,WUHU216HW,2013-01-23 11:53:00,
2013-01-23 06:58:00,13.9,2.5,30.14,North,0,0.0,0.0,60,0.00,,,0.00,WUHU216HW,2013-01-23 11:58:00,
2013-01-23 07:03:00,13.9,2.9,30.15,North,0,0.0,0.0,61,0.00,,,0.00,WUHU216HW,2013-01-23 12:03:00,
2013-01-23 07:08:00,13.9,2.9,30.14,North,0,0.0,0.0,61,0.00,,,0.00,WUHU216HW,2013-01-23 12:08:00,
2013-01-23 07:13:00,13.9,2.5,30.14,North,0,0.0,0.0,60,0.00,,,0.00,WUHU216HW,2013-01-23 12:13:00,
2013-01-23 07:19:00,13.9,2.5,30.14,North,0,0.0,0.0,60,0.00,,,0.00,WUHU216HW,2013-01-23 12:19:00,
2013-01-23 07:24:00,14.0,2.7,30.14,North,0,0.0,0.0,60,0.00,,,0.00,WUHU216HW,2013-01-23 12:24:00,
2013-01-23 07:29:00,14.0,2.7,30.14,North,0,0.0,0.0,60,0.00,,,0.00,WUHU216HW,2013-01-23 12:29:00,
2013-01-23 07:34:00,14.0,2.7,30.14,North,0,0.0,0.0,60,0.00,,,0.00,WUHU216HW,2013-01-23 12:34:00,
2013-01-23 07:39:00,14.2,2.9,30.14,North,0,0.0,0.0,60,0.00,,,0.00,WUHU216HW,2013-01-23 12:39:00,
2013-01-23 07:44:00,14.2,2.9,30.14,North,0,0.0,0.0,60,0.00,,,0.00,WUHU216HW,2013-01-23 12:44:00,
2013-01-23 07:49:00,14.4,3.1,30.14,North,0,0.0,0.0,60,0.00,,,0.00,WUHU216HW,2013-01-23 12:49:00,
2013-01-23 07:54:00,14.4,3.1,30.14,North,0,0.0,0.0,60,0.00,,,0.00,WUHU216HW,2013-01-23 12:54:00,
2013-01-23 07:59:00,14.4,3.1,30.14,North,0,0.0,0.0,60,0.00,,,0.00,WUHU216HW,2013-01-23 12:59:00,
2013-01-23 08:04:00,14.6,3.2,30.14,North,0,0.0,0.0,60,0.00,,,0.00,WUHU216HW,2013-01-23 13:04:00,
2013-01-23 08:09:00,14.6,3.2,30.15,North,0,0.0,0.0,60,0.00,,,0.00,WUHU216HW,2013-01-23 13:09:00,
2013-01-23 08:14:00,14.6,3.2,30.14,North,0,0.0,0.0,60,0.00,,,0.00,WUHU216HW,2013-01-23 13:14:00,
2013-01-23 08:20:00,14.8,3.3,30.14,North,0,0.0,0.0,60,0.00,,,0.00,WUHU216HW,2013-01-23 13:20:00,
2013-01-23 08:25:00,14.8,3.3,30.14,North,0,0.0,0.0,60,0.00,,,0.00,WUHU216HW,2013-01-23 13:25:00,
2013-01-23 08:30:00,14.8,3.3,30.14,North,0,0.0,0.0,60,0.00,,,0.00,WUHU216HW,2013-01-23 13:30:00,
2013-01-23 08:35:00,14.8,3.3,30.14,North,0,0.0,0.0,60,0.00,,,0.00,WUHU216HW,2013-01-23 13:35:00,
2013-01-23 08:40:00,14.8,3.3,30.14,North,0,0.0,0.0,60,0.00,,,0.00,WUHU216HW,2013-01-23 13:40:00,
2013-01-23 08:45:00,14.8,3.3,30.13,North,0,0.0,0.0,60,0.00,,,0.00,WUHU216HW,2013-01-23 13:45:00,
2013-01-23 08:50:00,14.8,3.3,30.13,North,0,0.0,0.0,60,0.00,,,0.00,WUHU216HW,2013-01-23 13:50:00,
2013-01-23 08:55:00,14.9,3.5,30.13,North,0,0.0,0.0,60,0.00,,,0.00,WUHU216HW,2013-01-23 13:55:00,
2013-01-23 09:00:00,14.9,3.5,30.13,North,0,0.0,0.0,60,0.00,,,0.00,WUHU216HW,2013-01-23 14:00:00,
2013-01-23 09:05:00,15.1,4.1,30.13,North,0,0.0,0.0,61,0.00,,,0.00,WUHU216HW,2013-01-23 14:05:00,
2013-01-23 09:10:00,15.1,4.1,30.13,North,0,0.0,0.0,61,0.00,,,0.00,WUHU216HW,2013-01-23 14:10:00,
2013-01-23 09:15:00,15.3,4.1,30.13,North,0,0.0,0.0,61,0.00,,,0.00,WUHU216HW,2013-01-23 14:15:00,
2013-01-23 09:20:00,15.5,4.3,30.13,North,0,0.0,0.0,61,0.00,,,0.00,WUHU216HW,2013-01-23 14:20:00,
2013-01-23 09:26:00,15.5,4.3,30.13,North,0,0.0,0.0,61,0.00,,,0.00,WUHU216HW,2013-01-23 14:26:00,
2013-01-23 09:31:00,15.5,4.3,30.12,North,0,0.0,0.0,61,0.00,,,0.00,WUHU216HW,2013-01-23 14:31:00,
2013-01-23 09:36:00,15.5,4.3,30.12,North,0,0.0,0.0,61,0.00,,,0.00,WUHU216HW,2013-01-23 14:36:00,
2013-01-23 09:41:00,15.7,4.5,30.12,North,0,0.0,0.0,61,0.00,,,0.00,WUHU216HW,2013-01-23 14:41:00,
2013-01-23 09:46:00,15.8,4.7,30.13,North,0,0.0,0.0,61,0.00,,,0.00,WUHU216HW,2013-01-23 14:46:00,
2013-01-23 09:51:00,16.0,4.9,30.13,North,0,0.0,0.0,61,0.00,,,0.00,WUHU216HW,2013-01-23 14:51:00,
2013-01-23 09:56:00,16.2,5.1,30.13,North,0,0.0,0.0,61,0.00,,,0.00,WUHU216HW,2013-01-23 14:56:00,
2013-01-23 10:01:00,16.2,4.7,30.12,North,0,0.0,0.0,60,0.00,,,0.00,WUHU216HW,2013-01-23 15:01:00,
2013-01-23 10:06:00,16.6,5.0,30.12,North,0,0.0,0.0,60,0.00,,,0.00,WUHU216HW,2013-01-23 15:06:00,
2013-01-23 10:12:00,16.7,5.2,30.12,North,0,0.0,0.0,60,0.00,,,0.00,WUHU216HW,2013-01-23 15:12:00,
2013-01-23 10:17:00,16.9,5.4,30.13,North,0,0.0,0.0,60,0.00,,,0.00,WUHU216HW,2013-01-23 15:17:00,
2013-01-23 10:22:00,16.9,5.4,30.12,North,0,0.0,0.0,60,0.00,,,0.00,WUHU216HW,2013-01-23 15:22:00,
2013-01-23 10:27:00,17.1,5.6,30.13,North,0,0.0,0.0,60,0.00,,,0.00,WUHU216HW,2013-01-23 15:27:00,
2013-01-23 10:32:00,17.1,5.6,30.13,North,0,0.0,0.0,60,0.00,,,0.00,WUHU216HW,2013-01-23 15:32:00,
2013-01-23 10:37:00,17.1,5.6,30.13,North,0,0.0,0.0,60,0.00,,,0.00,WUHU216HW,2013-01-23 15:37:00,
2013-01-23 10:42:00,17.3,5.4,30.13,North,0,0.0,0.0,59,0.00,,,0.00,WUHU216HW,2013-01-23 15:42:00,
2013-01-23 10:47:00,17.3,5.4,30.13,North,0,0.0,0.0,59,0.00,,,0.00,WUHU216HW,2013-01-23 15:47:00,
2013-01-23 10:52:00,17.5,5.6,30.13,North,0,0.0,0.0,59,0.00,,,0.00,WUHU216HW,2013-01-23 15:52:00,
2013-01-23 10:57:00,17.6,5.8,30.12,North,0,0.0,0.0,59,0.00,,,0.00,WUHU216HW,2013-01-23 15:57:00,
2013-01-23 11:02:00,17.6,5.8,30.12,North,0,0.0,0.0,59,0.00,,,0.00,WUHU216HW,2013-01-23 16:02:00,
2013-01-23 11:07:00,17.6,5.3,30.12,North,0,0.0,0.0,58,0.00,,,0.00,WUHU216HW,2013-01-23 16:07:00,
2013-01-23 11:13:00,17.8,5.5,30.12,North,0,0.0,0.0,58,0.00,,,0.00,WUHU216HW,2013-01-23 16:13:00,
2013-01-23 11:18:00,18.0,5.7,30.12,North,0,0.0,0.0,58,0.00,,,0.00,WUHU216HW,2013-01-23 16:18:00,
2013-01-23 11:23:00,18.0,5.7,30.12,North,0,0.0,0.0,58,0.00,,,0.00,WUHU216HW,2013-01-23 16:23:00,
2013-01-23 11:28:00,18.2,5.4,30.12,North,0,0.0,0.0,57,0.00,,,0.00,WUHU216HW,2013-01-23 16:28:00,
2013-01-23 11:33:00,18.4,5.9,30.12,North,0,0.0,0.0,58,0.00,,,0.00,WUHU216HW,2013-01-23 16:33:00,
2013-01-23 11:38:00,18.5,5.8,30.12,North,0,0.0,0.0,57,0.00,,,0.00,WUHU216HW,2013-01-23 16:38:00,
2013-01-23 11:43:00,18.7,6.0,30.11,North,0,0.0,0.0,57,0.00,,,0.00,WUHU216HW,2013-01-23 16:43:00,
2013-01-23 11:48:00,18.7,6.0,30.12,North,0,0.0,0.0,57,0.00,,,0.00,WUHU216HW,2013-01-23 16:48:00,
2013-01-23 11:53:00,18.9,6.0,30.11,North,0,0.0,0.0,57,0.00,,,0.00,WUHU216HW,2013-01-23 16:53:00,
2013-01-23 11:58:00,18.9,6.0,30.11,North,0,0.0,0.0,57,0.00,,,0.00,WUHU216HW,2013-01-23 16:58:00,
2013-01-23 12:04:00,19.1,6.2,30.10,North,0,0.0,0.0,57,0.00,,,0.00,WUHU216HW,2013-01-23 17:04:00,
2013-01-23 12:09:00,18.9,5.7,30.10,North,0,0.0,0.0,56,0.00,,,0.00,WUHU216HW,2013-01-23 17:09:00,
2013-01-23 12:14:00,19.1,5.9,30.09,North,0,0.0,0.0,56,0.00,,,0.00,WUHU216HW,2013-01-23 17:14:00,
2013-01-23 12:19:00,19.3,6.0,30.09,North,0,0.0,0.0,56,0.00,,,0.00,WUHU216HW,2013-01-23 17:19:00,
2013-01-23 12:24:00,19.4,6.1,30.08,North,0,0.0,0.0,56,0.00,,,0.00,WUHU216HW,2013-01-23 17:24:00,
2013-01-23 12:29:00,19.8,6.5,30.08,North,0,0.0,0.0,56,0.00,,,0.00,WUHU216HW,2013-01-23 17:29:00,
2013-01-23 12:34:00,19.8,6.5,30.08,North,0,0.0,0.0,56,0.00,,,0.00,WUHU216HW,2013-01-23 17:34:00,
2013-01-23 12:39:00,19.8,6.1,30.07,North,0,0.0,0.0,55,0.00,,,0.00,WUHU216HW,2013-01-23 17:39:00,
2013-01-23 12:44:00,20.0,6.3,30.06,North,0,0.0,0.0,55,0.00,,,0.00,WUHU216HW,2013-01-23 17:44:00,
2013-01-23 12:49:00,20.2,6.5,30.06,North,0,0.0,0.0,55,0.00,,,0.00,WUHU216HW,2013-01-23 17:49:00,
2013-01-23 12:54:00,20.3,6.7,30.06,North,0,0.0,0.0,55,0.00,,,0.00,WUHU216HW,2013-01-23 17:54:00,
2013-01-23 12:59:00,20.5,6.8,30.06,North,0,0.0,0.0,55,0.00,,,0.00,WUHU216HW,2013-01-23 17:59:00,
2013-01-23 13:04:00,20.5,6.8,30.06,North,0,0.0,0.0,55,0.00,,,0.00,WUHU216HW,2013-01-23 18:04:00,
2013-01-23 13:09:00,20.5,6.8,30.06,North,0,0.0,0.0,55,0.00,,,0.00,WUHU216HW,2013-01-23 18:09:00,
2013-01-23 13:15:00,20.5,6.8,30.05,North,0,0.0,0.0,55,0.00,,,0.00,WUHU216HW,2013-01-23 18:15:00,
2013-01-23 13:20:00,20.7,6.9,30.05,North,0,0.0,0.0,55,0.00,,,0.00,WUHU216HW,2013-01-23 18:20:00,
2013-01-23 13:25:00,20.7,6.9,30.04,North,0,0.0,0.0,55,0.00,,,0.00,WUHU216HW,2013-01-23 18:25:00,
2013-01-23 13:30:00,21.1,7.3,30.04,North,0,0.0,0.0,55,0.00,,,0.00,WUHU216HW,2013-01-23 18:30:00,
2013-01-23 13:35:00,21.2,7.5,30.04,North,0,0.0,0.0,55,0.00,,,0.00,WUHU216HW,2013-01-23 18:35:00,
2013-01-23 13:40:00,21.4,7.7,30.03,North,0,0.0,0.0,55,0.00,,,0.00,WUHU216HW,2013-01-23 18:40:00,
2013-01-23 13:45:00,21.6,7.8,30.03,North,0,0.0,0.0,55,0.00,,,0.00,WUHU216HW,2013-01-23 18:45:00,
2013-01-23 13:50:00,21.6,7.8,30.02,North,0,0.0,0.0,55,0.00,,,0.00,WUHU216HW,2013-01-23 18:50:00,
2013-01-23 13:55:00,21.6,7.4,30.02,North,0,0.0,0.0,54,0.00,,,0.00,WUHU216HW,2013-01-23 18:55:00,
2013-01-23 14:00:00,21.6,7.4,30.02,North,0,0.0,0.0,54,0.00,,,0.00,WUHU216HW,2013-01-23 19:00:00,
2013-01-23 14:05:00,21.6,7.4,30.02,North,0,0.0,0.0,54,0.00,,,0.00,WUHU216HW,2013-01-23 19:05:00,
2013-01-23 14:11:00,21.4,7.2,30.01,North,0,0.0,0.0,54,0.00,,,0.00,WUHU216HW,2013-01-23 19:11:00,
2013-01-23 14:16:00,21.4,7.2,30.01,North,0,0.0,0.0,54,0.00,,,0.00,WUHU216HW,2013-01-23 19:16:00,
2013-01-23 14:21:00,21.4,7.2,30.01,North,0,0.0,0.0,54,0.00,,,0.00,WUHU216HW,2013-01-23 19:21:00,
2013-01-23 14:26:00,21.4,6.9,30.00,North,0,0.0,0.0,53,0.00,,,0.00,WUHU216HW,2013-01-23 19:26:00,
2013-01-23 14:31:00,21.4,6.9,30.00,North,0,0.0,0.0,53,0.00,,,0.00,WUHU216HW,2013-01-23 19:31:00,
2013-01-23 14:36:00,21.4,7.2,30.00,North,0,0.0,0.0,54,0.00,,,0.00,WUHU216HW,2013-01-23 19:36:00,
2013-01-23 14:41:00,21.6,7.0,30.00,North,0,0.0,0.0,53,0.00,,,0.00,WUHU216HW,2013-01-23 19:41:00,
2013-01-23 14:46:00,21.6,7.0,30.00,North,0,0.0,0.0,53,0.00,,,0.00,WUHU216HW,2013-01-23 19:46:00,
2013-01-23 14:51:00,21.6,7.0,29.99,North,0,0.0,0.0,53,0.00,,,0.00,WUHU216HW,2013-01-23 19:51:00,
2013-01-23 14:56:00,21.6,7.0,29.99,North,0,0.0,0.0,53,0.00,,,0.00,WUHU216HW,2013-01-23 19:56:00,
2013-01-23 15:01:00,21.8,7.2,29.99,North,0,0.0,0.0,53,0.00,,,0.00,WUHU216HW,2013-01-23 20:01:00,
2013-01-23 15:06:00,21.8,7.2,29.99,North,0,0.0,0.0,53,0.00,,,0.00,WUHU216HW,2013-01-23 20:06:00,
2013-01-23 15:11:00,21.8,7.6,29.99,North,0,0.0,0.0,54,0.00,,,0.00,WUHU216HW,2013-01-23 20:11:00,
2013-01-23 15:16:00,21.8,7.6,29.99,North,0,0.0,0.0,54,0.00,,,0.00,WUHU216HW,2013-01-23 20:16:00,
2013-01-23 15:22:00,22.0,7.7,29.99,North,0,0.0,0.0,54,0.00,,,0.00,WUHU216HW,2013-01-23 20:22:00,
2013-01-23 15:27:00,22.0,7.7,29.99,North,0,0.0,0.0,54,0.00,,,0.00,WUHU216HW,2013-01-23 20:27:00,
2013-01-23 15:32:00,21.8,7.6,29.99,North,0,0.0,0.0,54,0.00,,,0.00,WUHU216HW,2013-01-23 20:32:00,
2013-01-23 15:37:00,22.0,7.7,29.98,North,0,0.0,0.0,54,0.00,,,0.00,WUHU216HW,2013-01-23 20:37:00,
2013-01-23 15:42:00,22.0,7.7,29.98,North,0,0.0,0.0,54,0.00,,,0.00,WUHU216HW,2013-01-23 20:42:00,
2013-01-23 15:47:00,22.0,7.7,29.98,North,0,0.0,0.0,54,0.00,,,0.00,WUHU216HW,2013-01-23 20:47:00,
2013-01-23 15:52:00,22.0,7.7,29.98,North,0,0.0,0.0,54,0.00,,,0.00,WUHU216HW,2013-01-23 20:52:00,
2013-01-23 15:57:00,22.0,8.2,29.98,North,0,0.0,0.0,55,0.00,,,0.00,WUHU216HW,2013-01-23 20:57:00,
2013-01-23 16:02:00,22.0,7.7,29.98,North,0,0.0,0.0,54,0.00,,,0.00,WUHU216HW,2013-01-23 21:02:00,
2013-01-23 16:07:00,22.0,7.7,29.98,North,0,0.0,0.0,54,0.00,,,0.00,WUHU216HW,2013-01-23 21:07:00,
2013-01-23 16:12:00,22.0,8.2,29.98,North,0,0.0,0.0,55,0.00,,,0.00,WUHU216HW,2013-01-23 21:12:00,
2013-01-23 16:18:00,22.0,8.2,29.98,North,0,0.0,0.0,55,0.00,,,0.00,WUHU216HW,2013-01-23 21:18:00,
2013-01-23 16:23:00,22.1,8.4,29.98,North,0,0.0,0.0,55,0.00,,,0.00,WUHU216HW,2013-01-23 21:23:00,
2013-01-23 16:28:00,22.1,8.4,29.97,North,0,0.0,0.0,55,0.00,,,0.00,WUHU216HW,2013-01-23 21:28:00,
2013-01-23 16:33:00,22.3,8.5,29.97,North,0,0.0,0.0,55,0.00,,,0.00,WUHU216HW,2013-01-23 21:33:00,
2013-01-23 16:38:00,22.3,8.5,29.97,North,0,0.0,0.0,55,0.00,,,0.00,WUHU216HW,2013-01-23 21:38:00,
2013-01-23 16:43:00,22.3,8.5,29.97,North,0,0.0,0.0,55,0.00,,,0.00,WUHU216HW,2013-01-23 21:43:00,
2013-01-23 16:48:00,22.5,8.6,29.97,North,0,0.0,0.0,55,0.00,,,0.00,WUHU216HW,2013-01-23 21:48:00,
2013-01-23 16:53:00,22.5,8.6,29.97,North,0,0.0,0.0,55,0.00,,,0.00,WUHU216HW,2013-01-23 21:53:00,
2013-01-23 16:58:00,22.5,8.6,29.97,North,0,0.0,0.0,55,0.00,,,0.00,WUHU216HW,2013-01-23 21:58:00,
2013-01-23 17:03:00,22.5,8.6,29.96,North,0,0.0,0.0,55,0.00,,,0.00,WUHU216HW,2013-01-23 22:03:00,
2013-01-23 17:08:00,22.5,8.6,29.97,North,0,0.0,0.0,55,0.00,,,0.00,WUHU216HW,2013-01-23 22:08:00,
2013-01-23 17:13:00,22.5,8.6,29.97,North,0,0.0,0.0,55,0.00,,,0.00,WUHU216HW,2013-01-23 22:13:00,
2013-01-23 17:18:00,22.5,8.6,29.96,North,0,0.0,0.0,55,0.00,,,0.00,WUHU216HW,2013-01-23 22:18:00,
2013-01-23 17:23:00,22.5,8.6,29.97,North,0,0.0,0.0,55,0.00,,,0.00,WUHU216HW,2013-01-23 22:23:00,
2013-01-23 17:28:00,22.5,8.6,29.96,North,0,0.0,0.0,55,0.00,,,0.00,WUHU216HW,2013-01-23 22:28:00,
2013-01-23 17:33:00,22.5,8.6,29.96,North,0,0.0,0.0,55,0.00,,,0.00,WUHU216HW,2013-01-23 22:33:00,
2013-01-23 17:38:00,22.7,8.8,29.96,North,0,0.0,0.0,55,0.00,,,0.00,WUHU216HW,2013-01-23 22:38:00,
2013-01-23 17:43:00,22.7,8.8,29.96,North,0,0.0,0.0,55,0.00,,,0.00,WUHU216HW,2013-01-23 22:43:00,
2013-01-23 17:48:00,22.7,9.3,29.96,North,0,0.0,0.0,56,0.00,,,0.00,WUHU216HW,2013-01-23 22:48:00,
2013-01-23 17:54:00,22.7,9.3,29.96,North,0,0.0,0.0,56,0.00,,,0.00,WUHU216HW,2013-01-23 22:54:00,
2013-01-23 17:59:00,22.7,9.3,29.96,North,0,0.0,0.0,56,0.00,,,0.00,WUHU216HW,2013-01-23 22:59:00,
2013-01-23 18:04:00,22.7,9.3,29.95,North,0,0.0,0.0,56,0.00,,,0.00,WUHU216HW,2013-01-23 23:04:00,
2013-01-23 18:09:00,22.7,9.3,29.95,North,0,0.0,0.0,56,0.00,,,0.00,WUHU216HW,2013-01-23 23:09:00,
2013-01-23 18:14:00,22.7,9.3,29.96,North,0,0.0,0.0,56,0.00,,,0.00,WUHU216HW,2013-01-23 23:14:00,
2013-01-23 18:19:00,22.7,9.3,29.96,North,0,0.0,0.0,56,0.00,,,0.00,WUHU216HW,2013-01-23 23:19:00,
2013-01-23 18:24:00,22.7,9.3,29.96,North,0,0.0,0.0,56,0.00,,,0.00,WUHU216HW,2013-01-23 23:24:00,
2013-01-23 18:29:00,22.7,9.3,29.96,North,0,0.0,0.0,56,0.00,,,0.00,WUHU216HW,2013-01-23 23:29:00,
2013-01-23 18:35:00,22.7,9.3,29.96,North,0,0.0,0.0,56,0.00,,,0.00,WUHU216HW,2013-01-23 23:35:00,
2013-01-23 18:39:00,22.7,9.3,29.95,North,0,0.0,0.0,56,0.00,,,0.00,WUHU216HW,2013-01-23 23:39:00,
2013-01-23 18:45:00,22.7,9.6,29.95,North,0,0.0,0.0,57,0.00,,,0.00,WUHU216HW,2013-01-23 23:45:00,
2013-01-23 18:50:00,22.7,9.6,29.95,North,0,0.0,0.0,57,0.00,,,0.00,WUHU216HW,2013-01-23 23:50:00,
2013-01-23 18:55:00,22.9,9.8,29.95,North,0,0.0,0.0,57,0.00,,,0.00,WUHU216HW,2013-01-23 23:55:00,
2013-01-23 19:00:00,22.9,9.8,29.95,North,0,0.0,0.0,57,0.00,,,0.00,WUHU216HW,2013-01-24 00:00:00,
2013-01-23 19:05:00,22.9,9.8,29.95,North,0,0.0,0.0,57,0.00,,,0.00,WUHU216HW,2013-01-24 00:05:00,
2013-01-23 19:10:00,22.9,9.8,29.95,North,0,0.0,0.0,57,0.00,,,0.00,WUHU216HW,2013-01-24 00:10:00,
2013-01-23 19:15:00,22.9,9.8,29.95,North,0,0.0,0.0,57,0.00,,,0.00,WUHU216HW,2013-01-24 00:15:00,
2013-01-23 19:20:00,22.7,9.6,29.95,North,0,0.0,0.0,57,0.00,,,0.00,WUHU216HW,2013-01-24 00:20:00,
2013-01-23 19:26:00,22.7,9.6,29.94,North,0,0.0,0.0,57,0.00,,,0.00,WUHU216HW,2013-01-24 00:26:00,
2013-01-23 19:31:00,22.7,9.6,29.94,North,0,0.0,0.0,57,0.00,,,0.00,WUHU216HW,2013-01-24 00:31:00,
2013-01-23 19:36:00,22.7,10.1,29.94,North,0,0.0,0.0,58,0.00,,,0.00,WUHU216HW,2013-01-24 00:36:00,
2013-01-23 19:41:00,22.9,10.2,29.94,North,0,0.0,0.0,58,0.00,,,0.00,WUHU216HW,2013-01-24 00:41:00,
2013-01-23 19:46:00,22.9,10.2,29.95,North,0,0.0,0.0,58,0.00,,,0.00,WUHU216HW,2013-01-24 00:46:00,
2013-01-23 19:51:00,22.9,10.2,29.95,North,0,0.0,0.0,58,0.00,,,0.00,WUHU216HW,2013-01-24 00:51:00,
2013-01-23 19:56:00,22.9,10.2,29.95,North,0,0.0,0.0,58,0.00,,,0.00,WUHU216HW,2013-01-24 00:56:00,
2013-01-23 20:01:00,22.9,10.2,29.94,North,0,0.0,0.0,58,0.00,,,0.00,WUHU216HW,2013-01-24 01:01:00,
2013-01-23 20:06:00,22.9,10.2,29.94,North,0,0.0,0.0,58,0.00,,,0.00,WUHU216HW,2013-01-24 01:06:00,
2013-01-23 20:11:00,22.9,10.6,29.94,North,0,0.0,0.0,59,0.00,,,0.00,WUHU216HW,2013-01-24 01:11:00,
2013-01-23 20:16:00,22.9,10.6,29.94,North,0,0.0,0.0,59,0.00,,,0.00,WUHU216HW,2013-01-24 01:16:00,
2013-01-23 20:22:00,22.9,10.6,29.94,North,0,0.0,0.0,59,0.00,,,0.00,WUHU216HW,2013-01-24 01:22:00,
2013-01-23 20:27:00,22.9,10.6,29.94,North,0,0.0,0.0,59,0.00,,,0.00,WUHU216HW,2013-01-24 01:27:00,
2013-01-23 20:32:00,22.9,10.6,29.94,North,0,0.0,0.0,59,0.00,,,0.00,WUHU216HW,2013-01-24 01:32:00,
2013-01-23 20:37:00,22.9,10.6,29.94,North,0,0.0,0.0,59,0.00,,,0.00,WUHU216HW,2013-01-24 01:37:00,
2013-01-23 20:42:00,22.9,10.6,29.94,North,0,0.0,0.0,59,0.00,,,0.00,WUHU216HW,2013-01-24 01:42:00,
2013-01-23 20:47:00,22.9,10.6,29.93,North,0,0.0,0.0,59,0.00,,,0.00,WUHU216HW,2013-01-24 01:47:00,
2013-01-23 20:52:00,22.7,10.5,29.94,North,0,0.0,0.0,59,0.00,,,0.00,WUHU216HW,2013-01-24 01:52:00,
2013-01-23 20:57:00,22.9,10.6,29.93,North,0,0.0,0.0,59,0.00,,,0.00,WUHU216HW,2013-01-24 01:57:00,
2013-01-23 21:02:00,22.9,10.6,29.93,North,0,0.0,0.0,59,0.00,,,0.00,WUHU216HW,2013-01-24 02:02:00,
2013-01-23 21:07:00,22.9,10.6,29.93,North,0,0.0,0.0,59,0.00,,,0.00,WUHU216HW,2013-01-24 02:07:00,
2013-01-23 21:12:00,22.9,11.0,29.93,North,0,0.0,0.0,60,0.00,,,0.00,WUHU216HW,2013-01-24 02:12:00,
2013-01-23 21:17:00,22.9,11.0,29.93,North,0,0.0,0.0,60,0.00,,,0.00,WUHU216HW,2013-01-24 02:17:00,
2013-01-23 21:22:00,22.9,11.0,29.94,North,0,0.0,0.0,60,0.00,,,0.00,WUHU216HW,2013-01-24 02:22:00,
2013-01-23 21:27:00,22.9,11.0,29.94,North,0,0.0,0.0,60,0.00,,,0.00,WUHU216HW,2013-01-24 02:27:00,
2013-01-23 21:32:00,22.9,11.0,29.94,North,0,0.0,0.0,60,0.00,,,0.00,WUHU216HW,2013-01-24 02:32:00,
2013-01-23 21:37:00,22.9,11.0,29.94,North,0,0.0,0.0,60,0.00,,,0.00,WUHU216HW,2013-01-24 02:37:00,
2013-01-23 21:42:00,22.7,10.8,29.94,North,0,0.0,0.0,60,0.00,,,0.00,WUHU216HW,2013-01-24 02:42:00,
2013-01-23 21:48:00,22.7,10.8,29.94,North,0,0.0,0.0,60,0.00,,,0.00,WUHU216HW,2013-01-24 02:48:00,
2013-01-23 21:53:00,22.7,10.8,29.94,North,0,0.0,0.0,60,0.00,,,0.00,WUHU216HW,2013-01-24 02:53:00,
2013-01-23 21:58:00,22.7,10.8,29.94,North,0,0.0,0.0,60,0.00,,,0.00,WUHU216HW,2013-01-24 02:58:00,
2013-01-23 22:03:00,22.7,10.8,29.94,North,0,0.0,0.0,60,0.00,,,0.00,WUHU216HW,2013-01-24 03:03:00,
2013-01-23 22:08:00,22.7,10.8,29.94,North,0,0.0,0.0,60,0.00,,,0.00,WUHU216HW,2013-01-24 03:08:00,
2013-01-23 22:13:00,22.7,10.8,29.94,North,0,0.0,0.0,60,0.00,,,0.00,WUHU216HW,2013-01-24 03:13:00,
2013-01-23 22:18:00,22.7,10.8,29.94,North,0,0.0,0.0,60,0.00,,,0.00,WUHU216HW,2013-01-24 03:18:00,
2013-01-23 22:23:00,22.7,11.2,29.94,North,0,0.0,0.0,61,0.00,,,0.00,WUHU216HW,2013-01-24 03:23:00,
2013-01-23 22:28:00,22.7,11.2,29.94,North,0,0.0,0.0,61,0.00,,,0.00,WUHU216HW,2013-01-24 03:28:00,
2013-01-23 22:33:00,22.7,11.2,29.94,North,0,0.0,0.0,61,0.00,,,0.00,WUHU216HW,2013-01-24 03:33:00,
2013-01-23 22:38:00,22.7,11.2,29.96,North,0,0.0,0.0,61,0.00,,,0.00,WUHU216HW,2013-01-24 03:38:00,
2013-01-23 22:43:00,22.5,11.3,29.96,North,0,0.0,0.0,62,0.00,,,0.00,WUHU216HW,2013-01-24 03:43:00,
2013-01-23 22:48:00,22.3,11.3,29.96,North,0,0.0,0.0,62,0.00,,,0.00,WUHU216HW,2013-01-24 03:48:00,
2013-01-23 22:53:00,22.3,11.6,29.96,North,0,0.0,0.0,63,0.00,,,0.00,WUHU216HW,2013-01-24 03:53:00,
2013-01-23 22:58:00,22.3,11.3,29.96,North,0,0.0,0.0,62,0.00,,,0.00,WUHU216HW,2013-01-24 03:58:00,
2013-01-23 23:03:00,22.3,11.3,29.96,North,0,0.0,0.0,62,0.00,,,0.00,WUHU216HW,2013-01-24 04:03:00,
2013-01-23 23:08:00,22.3,11.9,29.96,North,0,0.0,0.0,64,0.00,,,0.00,WUHU216HW,2013-01-24 04:08:00,
2013-01-23 23:13:00,22.5,12.1,29.97,North,0,0.0,0.0,64,0.00,,,0.00,WUHU216HW,2013-01-24 04:13:00,
2013-01-23 23:18:00,22.5,12.4,29.97,North,0,0.0,0.0,65,0.00,,,0.00,WUHU216HW,2013-01-24 04:18:00,
2013-01-23 23:23:00,22.7,13.0,29.97,North,0,0.0,0.0,66,0.00,,,0.00,WUHU216HW,2013-01-24 04:23:00,
2013-01-23 23:28:00,22.5,12.8,29.97,North,0,0.0,0.0,66,0.00,,,0.00,WUHU216HW,2013-01-24 04:28:00,
2013-01-23 23:33:00,22.5,13.1,29.98,North,0,0.0,0.0,67,0.00,,,0.00,WUHU216HW,2013-01-24 04:33:00,
2013-01-23 23:38:00,22.5,12.8,29.98,North,0,0.0,0.0,66,0.00,,,0.00,WUHU216HW,2013-01-24 04:38:00,
2013-01-23 23:43:00,22.3,12.6,29.98,North,0,0.0,0.0,66,0.00,,,0.00,WUHU216HW,2013-01-24 04:43:00,
2013-01-23 23:49:00,22.1,11.8,29.98,North,0,0.0,0.0,64,0.00,,,0.00,WUHU216HW,2013-01-24 04:49:00,
2013-01-23 23:54:00,22.0,10.5,29.99,North,0,0.0,0.0,61,0.00,,,0.00,WUHU216HW,2013-01-24 04:54:00,
2013-01-23 23:59:00,21.8,9.2,29.99,North,0,0.0,0.0,58,0.00,,,0.00,WUHU216HW,2013-01-24 04:59:00,